When you browse on this site, cookies collect data to enhance your experience and personalize the content and advertising you see.
Visit our Privacy Policy to learn more. By continuing to use the site, you agree to this use of cookies and data.
  • Em Portugal
  • Lista de países
  • Para 7 dias
  • Temperatura da água
  • Mapas de satélite
  • Mapa do tempo
  • Widgets de tempo
  • user-avatar
    Iniciar Sessão

    Previsão horária em Rudashkovo

    Hoje, 21 Abril, Domingo

    Tempo Temperatura Precipitação Vento Pressão Humidade
    00:00 +5°C° 0 mm 2 m/s 750 mmHg 86%
    01:00 +5°C° 0 mm 2 m/s 750 mmHg 89%
    02:00 +4°C° 0 mm 2 m/s 750 mmHg 92%
    03:00 +4°C° 0 mm 2 m/s 750 mmHg 93%
    04:00 +2°C° 0 mm 3 m/s 750 mmHg 93%
    05:00 +2°C° 0 mm 3 m/s 750 mmHg 94%
    06:00 +4°C° 0 mm 3 m/s 750 mmHg 88%
    07:00 +5°C° 0 mm 4 m/s 750 mmHg 82%
    08:00 +7°C° 0 mm 4 m/s 750 mmHg 75%
    09:00 +10°C° 0 mm 4 m/s 751 mmHg 67%
    10:00 +12°C° 0 mm 4 m/s 751 mmHg 60%
    11:00 +13°C° 0 mm 4 m/s 751 mmHg 52%
    12:00 +14°C° 0.1 mm 4 m/s 751 mmHg 48%
    13:00 +15°C° 0.1 mm 4 m/s 751 mmHg 45%
    14:00 +17°C° 0 mm 4 m/s 751 mmHg 40%
    15:00 +15°C° 0 mm 4 m/s 751 mmHg 44%
    16:00 +14°C° 0 mm 3 m/s 751 mmHg 48%
    17:00 +14°C° 0 mm 3 m/s 751 mmHg 51%
    18:00 +14°C° 0 mm 2 m/s 751 mmHg 54%
    19:00 +13°C° 0 mm 2 m/s 752 mmHg 57%
    20:00 +12°C° 0 mm 2 m/s 752 mmHg 60%
    21:00 +10°C° 0 mm 2 m/s 752 mmHg 63%
    22:00 +9°C° 0 mm 2 m/s 753 mmHg 66%
    23:00 +8°C° 0 mm 2 m/s 753 mmHg 69%

    Amanhã, 22 Abril, Segunda-feira

    Tempo Temperatura Precipitação Vento Pressão Humidade
    00:00 +8°C° 0 mm 2 m/s 753 mmHg 70%
    01:00 +8°C° 0 mm 1 m/s 753 mmHg 71%
    02:00 +8°C° 0 mm 1 m/s 754 mmHg 73%
    03:00 +7°C° 0 mm 1 m/s 754 mmHg 73%
    04:00 +7°C° 0 mm 1 m/s 754 mmHg 73%
    05:00 +7°C° 0 mm 1 m/s 754 mmHg 73%
    06:00 +9°C° 0 mm 1 m/s 755 mmHg 68%
    07:00 +11°C° 0 mm 1 m/s 755 mmHg 62%
    08:00 +13°C° 0 mm 1 m/s 755 mmHg 56%
    09:00 +14°C° 0 mm 2 m/s 755 mmHg 49%
    10:00 +15°C° 0 mm 2 m/s 755 mmHg 41%
    11:00 +17°C° 0 mm 2 m/s 756 mmHg 33%
    12:00 +16°C° 0 mm 2 m/s 755 mmHg 34%
    13:00 +16°C° 0 mm 2 m/s 755 mmHg 34%
    14:00 +16°C° 0 mm 1 m/s 755 mmHg 35%
    15:00 +16°C° 0 mm 1 m/s 755 mmHg 35%
    16:00 +16°C° 0 mm 1 m/s 755 mmHg 36%
    17:00 +15°C° 0 mm 0 m/s 755 mmHg 37%
    18:00 +15°C° 0 mm 1 m/s 755 mmHg 40%
    19:00 +13°C° 0 mm 1 m/s 755 mmHg 44%
    20:00 +12°C° 0 mm 1 m/s 755 mmHg 48%
    21:00 +11°C° 0 mm 1 m/s 756 mmHg 50%
    22:00 +10°C° 0 mm 1 m/s 756 mmHg 53%
    23:00 +10°C° 0 mm 1 m/s 756 mmHg 55%

    Depois de amanhã, 23 Abril, Terça-feira

    Tempo Temperatura Precipitação Vento Pressão Humidade
    00:00 +9°C° 0 mm 1 m/s 756 mmHg 57%
    01:00 +9°C° 0 mm 1 m/s 756 mmHg 59%
    02:00 +8°C° 0 mm 1 m/s 757 mmHg 61%
    03:00 +8°C° 0 mm 1 m/s 757 mmHg 62%
    04:00 +8°C° 0 mm 1 m/s 757 mmHg 64%
    05:00 +8°C° 0 mm 1 m/s 757 mmHg 66%
    06:00 +10°C° 0 mm 1 m/s 757 mmHg 62%
    07:00 +10°C° 0 mm 2 m/s 757 mmHg 58%
    08:00 +13°C° 0 mm 2 m/s 758 mmHg 54%
    09:00 +15°C° 0 mm 2 m/s 757 mmHg 49%
    10:00 +16°C° 0 mm 2 m/s 757 mmHg 43%
    11:00 +18°C° 0 mm 2 m/s 757 mmHg 38%
    12:00 +18°C° 0 mm 2 m/s 757 mmHg 37%
    13:00 +19°C° 0 mm 1 m/s 757 mmHg 35%
    14:00 +19°C° 0 mm 1 m/s 757 mmHg 34%
    15:00 +19°C° 0 mm 1 m/s 756 mmHg 35%
    16:00 +19°C° 0 mm 1 m/s 756 mmHg 36%
    17:00 +19°C° 0 mm 1 m/s 756 mmHg 38%
    18:00 +16°C° 0 mm 1 m/s 756 mmHg 41%
    19:00 +13°C° 0 mm 0 m/s 756 mmHg 45%
    20:00 +11°C° 0 mm 0 m/s 756 mmHg 49%
    21:00 +11°C° 0 mm 0 m/s 756 mmHg 50%
    22:00 +10°C° 0 mm 0 m/s 756 mmHg 52%
    23:00 +10°C° 0 mm 0 m/s 756 mmHg 53%

    24 Abril, Quarta-feira

    Tempo Temperatura Precipitação Vento Pressão Humidade
    00:00 +9°C° 0 mm 0 m/s 757 mmHg 55%
    01:00 +9°C° 0 mm 0 m/s 757 mmHg 56%
    02:00 +8°C° 0 mm 0 m/s 757 mmHg 58%
    03:00 +8°C° 0 mm 0 m/s 757 mmHg 59%
    04:00 +8°C° 0 mm 0 m/s 757 mmHg 60%
    05:00 +8°C° 0 mm 0 m/s 757 mmHg 61%
    06:00 +10°C° 0 mm 0 m/s 757 mmHg 57%
    07:00 +12°C° 0 mm 0 m/s 757 mmHg 52%
    08:00 +14°C° 0 mm 0 m/s 757 mmHg 48%
    09:00 +15°C° 0 mm 0 m/s 757 mmHg 44%
    10:00 +18°C° 0 mm 1 m/s 757 mmHg 40%
    11:00 +20°C° 0 mm 1 m/s 757 mmHg 37%
    12:00 +20°C° 0 mm 1 m/s 757 mmHg 36%
    13:00 +19°C° 0 mm 2 m/s 757 mmHg 35%
    14:00 +20°C° 0 mm 2 m/s 756 mmHg 34%
    15:00 +20°C° 0 mm 2 m/s 756 mmHg 35%
    16:00 +19°C° 0 mm 2 m/s 756 mmHg 37%
    17:00 +19°C° 0 mm 2 m/s 756 mmHg 39%
    18:00 +18°C° 0 mm 1 m/s 756 mmHg 44%
    19:00 +16°C° 0 mm 1 m/s 756 mmHg 48%
    20:00 +14°C° 0 mm 1 m/s 756 mmHg 52%
    21:00 +13°C° 0 mm 1 m/s 756 mmHg 54%
    22:00 +12°C° 0 mm 1 m/s 756 mmHg 56%
    23:00 +12°C° 0 mm 1 m/s 756 mmHg 57%

    25 Abril, Quinta-feira

    Tempo Temperatura Precipitação Vento Pressão Humidade
    00:00 +11°C° 0 mm 1 m/s 756 mmHg 58%
    01:00 +11°C° 0 mm 1 m/s 756 mmHg 59%
    02:00 +11°C° 0 mm 1 m/s 756 mmHg 60%
    03:00 +10°C° 0 mm 1 m/s 756 mmHg 62%
    04:00 +10°C° 0 mm 1 m/s 756 mmHg 63%
    05:00 +10°C° 0 mm 1 m/s 756 mmHg 65%
    06:00 +12°C° 0 mm 1 m/s 756 mmHg 61%
    07:00 +13°C° 0 mm 1 m/s 756 mmHg 57%
    08:00 +15°C° 0 mm 2 m/s 756 mmHg 52%
    09:00 +17°C° 0 mm 2 m/s 756 mmHg 49%
    10:00 +18°C° 0 mm 3 m/s 756 mmHg 45%
    11:00 +19°C° 0 mm 4 m/s 756 mmHg 41%
    12:00 +20°C° 0 mm 4 m/s 756 mmHg 41%
    13:00 +20°C° 0 mm 4 m/s 755 mmHg 40%
    14:00 +20°C° 0 mm 4 m/s 755 mmHg 39%
    15:00 +20°C° 0 mm 3 m/s 754 mmHg 42%
    16:00 +20°C° 0 mm 3 m/s 754 mmHg 44%
    17:00 +20°C° 0 mm 3 m/s 754 mmHg 46%
    18:00 +18°C° 0 mm 3 m/s 753 mmHg 51%
    19:00 +16°C° 0 mm 2 m/s 753 mmHg 56%
    20:00 +14°C° 0 mm 2 m/s 753 mmHg 61%
    21:00 +14°C° 0 mm 2 m/s 753 mmHg 63%
    22:00 +13°C° 0 mm 2 m/s 753 mmHg 64%
    23:00 +12°C° 0 mm 2 m/s 753 mmHg 66%

    26 Abril, Sexta-feira

    Tempo Temperatura Precipitação Vento Pressão Humidade
    00:00 +12°C° 0 mm 2 m/s 753 mmHg 67%
    01:00 +10°C° 0 mm 2 m/s 753 mmHg 68%
    02:00 +10°C° 0 mm 2 m/s 752 mmHg 69%
    03:00 +10°C° 0 mm 2 m/s 752 mmHg 70%
    04:00 +9°C° 0 mm 3 m/s 752 mmHg 72%
    05:00 +9°C° 0 mm 3 m/s 752 mmHg 73%
    06:00 +11°C° 0 mm 3 m/s 751 mmHg 68%
    07:00 +13°C° 0 mm 4 m/s 751 mmHg 64%
    08:00 +15°C° 0 mm 4 m/s 751 mmHg 59%
    09:00 +16°C° 0 mm 5 m/s 751 mmHg 54%
    10:00 +19°C° 0 mm 5 m/s 750 mmHg 49%
    11:00 +20°C° 0 mm 6 m/s 750 mmHg 44%
    12:00 +20°C° 0 mm 6 m/s 749 mmHg 43%
    13:00 +21°C° 0 mm 6 m/s 749 mmHg 42%
    14:00 +21°C° 0 mm 6 m/s 748 mmHg 42%
    15:00 +21°C° 0 mm 5 m/s 748 mmHg 44%
    16:00 +21°C° 0 mm 4 m/s 748 mmHg 47%
    17:00 +21°C° 0 mm 3 m/s 747 mmHg 50%
    18:00 +19°C° 0 mm 3 m/s 747 mmHg 54%
    19:00 +17°C° 0 mm 3 m/s 747 mmHg 59%
    20:00 +14°C° 0 mm 3 m/s 747 mmHg 64%
    21:00 +13°C° 0 mm 3 m/s 747 mmHg 64%
    22:00 +13°C° 0 mm 3 m/s 747 mmHg 64%
    23:00 +12°C° 0 mm 3 m/s 747 mmHg 64%
    Mostrar mais